Date String (YYYY-MM-DD hh:mm:ss) UTC,Instrument flags,absolute air pressure of the measurement (hPa),sample flow rate (lpm),inlet stack bypass flow (lpm),air temperature of the measurement (°C),ambient temperature measured by the external sensor (°C),aerosol sample conditioner tube jacket temperature (°C),OPC LED temperature (°C),internal box temperature (°C),relative humidity of the measurement (%),span deviation,mass concentration of particles derived from Lorenz-Mie calculation of OPC scattering (μg/m³),mass concentration of particles derived from Lorenz-Mie calculation of OPC scattering (μg/m³),mass concentration of particles derived from Lorenz-Mie calculation of OPC scattering (μg/m³)
DateTimeUTC,F1_M11,P_M11,Q1_M11,Q2_M11,T1_M11,T2_M11,T3_M11,T4_M11,T5_M11,U1_M11,ZSPAN_M11,X0_M11,X2_M11,X1_M11
2023-06-19 04:00:00,SystemResetWarning,0824.9,5.02,000.00,029.4,027.4,000.0,038.0,031.0,26.7,0000.0,0009.06,0004.17,0003.71
2023-06-19 04:01:00,SystemResetWarning,0824.9,5.00,000.00,029.4,027.6,000.0,038.0,031.0,26.7,0000.0,0008.98,0004.17,0003.71
2023-06-19 04:02:00,SystemResetWarning,0824.8,4.99,000.00,029.5,027.7,000.0,038.0,031.1,26.5,0000.0,0009.31,0004.16,0003.71
2023-06-19 04:03:00,SystemResetWarning,0824.8,4.99,000.00,029.5,027.9,000.0,038.0,031.1,26.3,0000.0,0009.58,0004.18,0003.73
2023-06-19 04:04:00,SystemResetWarning,0824.9,4.99,000.00,029.5,028.0,000.0,038.0,031.1,26.1,0000.0,0010.00,0004.20,0003.75
2023-06-19 04:05:00,SystemResetWarning,0824.9,5.00,000.00,029.6,028.1,000.0,038.0,031.2,26.1,0000.0,0009.34,0004.25,0003.77
2023-06-19 04:06:00,SystemResetWarning,0824.9,5.00,000.00,029.6,028.2,000.0,038.0,031.2,25.7,0000.0,0009.83,0004.29,0003.79
2023-06-19 04:07:00,SystemResetWarning,0824.8,5.00,000.00,029.6,028.2,000.0,038.1,031.2,25.5,0000.0,0010.17,0004.34,0003.83
2023-06-19 04:08:00,SystemResetWarning,0824.8,5.01,000.00,029.7,028.2,000.0,038.1,031.3,25.6,0000.0,0010.19,0004.39,0003.86
2023-06-19 04:09:00,SystemResetWarning,0824.8,5.00,000.00,029.7,026.2,000.0,038.0,031.2,25.6,0000.0,0010.23,0004.42,0003.88
2023-06-19 04:10:00,SystemResetWarning,0824.8,5.00,000.00,029.6,024.9,000.0,038.0,031.2,25.3,0000.0,0010.35,0004.48,0003.92
2023-06-19 04:11:00,SystemResetWarning,0824.7,5.02,000.00,029.6,024.9,000.0,038.0,031.0,25.3,0000.0,0010.70,0004.48,0003.96
2023-06-19 04:12:00,SystemResetWarning,0824.7,5.01,000.00,029.5,025.3,000.0,038.0,030.8,25.5,0000.0,0011.01,0004.52,0003.99
2023-06-19 04:13:00,SystemResetWarning,0824.7,5.00,000.00,029.4,025.8,000.0,038.0,030.8,25.5,0000.0,0010.83,0004.56,0004.03
2023-06-19 04:14:00,SystemResetWarning,0824.7,4.99,000.00,029.4,026.2,000.0,038.0,030.8,25.6,0000.0,0010.75,0004.61,0004.06
2023-06-19 04:15:00,SystemResetWarning,0824.7,5.00,000.00,029.4,026.6,000.0,038.0,030.8,25.5,0000.0,0010.57,0004.64,0004.07
2023-06-19 04:16:00,SystemResetWarning,0824.7,5.00,000.00,029.4,026.9,000.0,038.0,030.9,25.4,0000.0,0010.18,0004.65,0004.08
2023-06-19 04:17:00,SystemResetWarning,0824.7,5.01,000.00,029.4,027.2,000.0,038.0,030.9,25.5,0000.0,0010.22,0004.61,0004.08
2023-06-19 04:18:00,SystemResetWarning,0824.7,5.00,000.00,029.4,027.4,000.0,038.0,030.9,25.4,0000.0,0009.90,0004.61,0004.07
2023-06-19 04:19:00,SystemResetWarning,0824.8,5.01,000.00,029.5,027.6,000.0,038.0,031.0,25.3,0000.0,0009.78,0004.59,0004.07
2023-06-19 04:20:00,SystemResetWarning,0824.7,4.99,000.00,029.5,027.7,000.0,038.0,031.0,25.4,0000.0,0009.80,0004.58,0004.08
2023-06-19 04:21:00,SystemResetWarning,0824.8,4.99,000.00,029.5,027.9,000.0,038.0,031.1,25.3,0000.0,0009.98,0004.57,0004.08
2023-06-19 04:22:00,SystemResetWarning,0824.7,5.00,000.00,029.5,028.0,000.0,038.0,031.1,25.2,0000.0,0009.74,0004.58,0004.08
2023-06-19 04:23:00,SystemResetWarning,0824.7,5.02,000.00,029.6,028.0,000.0,038.0,031.1,25.2,0000.0,0009.21,0004.56,0004.07
2023-06-19 04:24:00,SystemResetWarning,0824.8,5.01,000.00,029.6,028.1,000.0,038.1,031.2,25.0,0000.0,0009.04,0004.55,0004.07
2023-06-19 04:25:00,SystemResetWarning,0824.7,5.00,000.00,029.6,028.2,000.0,038.1,031.3,25.3,0000.0,0008.97,0004.53,0004.07
2023-06-19 04:26:00,SystemResetWarning,0824.8,5.00,000.00,029.7,028.3,000.0,038.1,031.3,25.1,0000.0,0008.69,0004.55,0004.07
2023-06-19 04:27:00,SystemResetWarning,0824.7,5.00,000.00,029.7,028.3,000.0,038.1,031.3,24.9,0000.0,0008.50,0004.56,0004.08
2023-06-19 04:28:00,SystemResetWarning,0824.7,4.99,000.00,029.7,026.8,000.0,038.1,031.3,24.7,0000.0,0008.13,0004.56,0004.09
2023-06-19 04:29:00,SystemResetWarning,0824.7,5.00,000.00,029.7,025.0,000.0,038.0,031.2,24.6,0000.0,0007.71,0004.59,0004.11
2023-06-19 04:30:00,SystemResetWarning,0824.7,5.01,000.00,029.6,024.8,000.0,038.0,031.0,24.7,0000.0,0007.69,0004.62,0004.12
2023-06-19 04:31:00,SystemResetWarning,0824.7,5.02,000.00,029.5,025.1,000.0,038.0,030.7,24.8,0000.0,0007.78,0004.63,0004.11
2023-06-19 04:32:00,SystemResetWarning,0824.7,5.00,000.00,029.4,025.6,000.0,038.0,030.7,24.8,0000.0,0007.58,0004.64,0004.11
2023-06-19 04:33:00,SystemResetWarning,0824.7,5.00,000.00,029.4,026.0,000.0,038.0,030.7,24.9,0000.0,0007.65,0004.65,0004.12
2023-06-19 04:34:00,SystemResetWarning,0824.7,4.99,000.00,029.4,026.4,000.0,038.0,030.8,24.9,0000.0,0007.69,0004.66,0004.14
2023-06-19 04:35:00,SystemResetWarning,0824.7,5.00,000.00,029.4,026.8,000.0,038.0,030.8,24.9,0000.0,0007.93,0004.66,0004.14
2023-06-19 04:36:00,SystemResetWarning,0824.7,4.99,000.00,029.4,027.0,000.0,038.0,030.9,24.9,0000.0,0008.24,0004.66,0004.14
2023-06-19 04:37:00,SystemResetWarning,0824.7,5.00,000.00,029.4,027.3,000.0,038.0,030.9,24.7,0000.0,0008.25,0004.63,0004.14
2023-06-19 04:38:00,SystemResetWarning,0824.7,4.99,000.00,029.5,027.5,000.0,038.0,031.0,24.8,0000.0,0008.22,0004.61,0004.14
2023-06-19 04:39:00,SystemResetWarning,0824.7,5.00,000.00,029.5,027.6,000.0,038.0,031.0,25.0,0000.0,0008.54,0004.63,0004.13
2023-06-19 04:40:00,SystemResetWarning,0824.6,5.00,000.00,029.5,027.8,000.0,038.0,031.0,24.8,0000.0,0008.54,0004.60,0004.11
2023-06-19 04:41:00,SystemResetWarning,0824.7,5.00,000.00,029.5,027.9,000.0,038.0,031.1,24.9,0000.0,0009.02,0004.57,0004.10
2023-06-19 04:42:00,SystemResetWarning,0824.7,5.00,000.00,029.5,028.0,000.0,038.0,031.1,24.5,0000.0,0009.47,0004.57,0004.08
2023-06-19 04:43:00,SystemResetWarning,0824.7,5.01,000.00,029.6,028.1,000.0,038.0,031.1,24.3,0000.0,0009.67,0004.59,0004.08
2023-06-19 04:44:00,SystemResetWarning,0824.7,4.99,000.00,029.6,028.1,000.0,038.1,031.2,24.4,0000.0,0009.65,0004.58,0004.07
2023-06-19 04:45:00,SystemResetWarning,0824.7,4.99,000.00,029.6,028.2,000.0,038.1,031.2,24.4,0000.0,0010.21,0004.56,0004.06
2023-06-19 04:46:00,SystemResetWarning,0824.7,5.00,000.00,029.7,028.3,000.0,038.1,031.2,24.6,0000.0,0010.00,0004.55,0004.06
2023-06-19 04:47:00,SystemResetWarning,0824.7,5.00,000.00,029.7,028.3,000.0,038.1,031.3,24.3,0000.0,0010.21,0004.56,0004.05
2023-06-19 04:48:00,SystemResetWarning,0824.7,5.00,000.00,029.7,028.2,000.0,038.1,031.3,24.1,0000.0,0010.55,0004.54,0004.04
2023-06-19 04:49:00,SystemResetWarning,0824.7,5.00,000.00,029.7,026.2,000.0,038.1,031.3,24.0,0000.0,0010.54,0004.53,0004.02
2023-06-19 04:50:00,SystemResetWarning,0824.7,5.00,000.00,029.7,024.8,000.0,038.0,031.2,24.0,0000.0,0010.26,0004.50,0004.01
2023-06-19 04:51:00,SystemResetWarning,0824.6,5.01,000.00,029.6,024.8,000.0,038.0,030.9,24.2,0000.0,0010.19,0004.49,0004.01
2023-06-19 04:52:00,SystemResetWarning,0824.6,5.00,000.00,029.5,025.2,000.0,038.0,030.8,24.5,0000.0,0010.00,0004.50,0004.00
2023-06-19 04:53:00,SystemResetWarning,0824.6,5.00,000.00,029.5,025.6,000.0,038.0,030.8,24.2,0000.0,0009.50,0004.51,0004.01
2023-06-19 04:54:00,SystemResetWarning,0824.6,5.00,000.00,029.4,026.1,000.0,038.0,030.7,24.1,0000.0,0009.45,0004.47,0004.00
2023-06-19 04:55:00,SystemResetWarning,0824.6,5.00,000.00,029.4,026.5,000.0,038.0,030.8,24.1,0000.0,0010.05,0004.45,0003.99
2023-06-19 04:56:00,SystemResetWarning,0824.6,5.01,000.00,029.4,026.8,000.0,038.0,030.8,24.1,0000.0,0009.72,0004.47,0003.99
2023-06-19 04:57:00,SystemResetWarning,0824.6,5.00,000.00,029.4,027.0,000.0,038.0,030.8,24.2,0000.0,0009.77,0004.48,0003.97
2023-06-19 04:58:00,SystemResetWarning,0824.7,5.00,000.00,029.4,027.3,000.0,038.0,030.9,24.1,0000.0,0009.66,0004.47,0003.97
2023-06-19 04:59:00,SystemResetWarning,0824.7,5.00,000.00,029.4,027.5,000.0,038.0,030.9,24.0,0000.0,0008.87,0004.47,0003.97
